Weather in Olyshivka

Ukraine / Chernihiv Region     51°13′17″N   31°19′57″E
temp.,
°C
wind,
m/s
gust,
m/s
humid.,
%
clouds,
%
prec.,
mm/h
press.,
hPa
HPBL,
m
14 may, fri
fri1400:00+10se41188100 0.0 1010254
03:00+11se41184100 0.3 1010309
06:00+10ese4993100 1.4 1009228
09:00+14se487498 1.4 1009397
12:00+18se5767100 0.0 1008944
15:00+14ssw229297 2.9 100750
18:00+18ssw477415 0.0 10061007
21:00+13ssw33901 0.3 100739
15 may, sat
sat1500:00+11s3492100 0.0 100768
03:00+11ssw37905 0.0 1008164
06:00+9s36956 0.0 1008121
09:00+14ssw5783100 0.0 1009433
12:00+18sw566841 0.1 10101280
15:00+19sw785992 0.6 10101637
18:00+16sw686921 0.1 1010636
21:00+11ssw349116 0.1 101161
16 may, sun
sun1600:00+10sw35946 0.0 101292
03:00+9sw359614 0.0 101383
06:00+9ssw34961 0.0 101378
09:00+15sw22781 0.0 1014418
12:00+19s225997 0.0 10131120
15:00+21se235496 0.0 10121395
18:00+21se3565100 0.0 1011598
21:00+15ese3483100 0.0 101151
17 may, mon
mon1700:00+14e3582100 0.0 101072
03:00+14e3783100 0.0 1009142
06:00+13ene3788100 0.0 1007145
09:00+14ssw2399100 8.3 1007107
12:00+16nw4487100 4.2 1006291
15:00+17wnw5489100 5.3 1005445
18:00+15nw3590100 4.3 1005314
21:00+12wnw349557 4.3 100762
18 may, tue
tue1800:00+12wnw229695 0.0 100724
03:00+11wnw2297100 0.0 100714
06:00+11w2397100 0.0 100776
09:00+15w2386100 0.0 1008481
12:00+18sw227289 0.3 1008928
15:00+19sw3466100 1.1 10071195
18:00+17wsw3477100 0.2 1007361
21:00+13wsw1189100 0.3 100710